(322412) = 2011 SX67

Discovered at Mount Lemmon on 2006-05-03 by Mt. Lemmon Survey.

Orbit

Orbit type: Main Belt

Note: WebGL enabled browser required.

epoch2024-03-31.0
epoch JD2460400.5
perihelion date2023-05-09.97299
perihelion JD2460074.47299
argument of perihelion (°)155.10873
ascending node (°)221.48903
inclination (°)6.89501
eccentricity0.1388084
perihelion distance (AU)2.1108159
Tisserand w.r.t. Jupiter3.5
ΔV w.r.t. Earth (km/sec)9.3
semimajor axis (AU)2.4510410
mean anomaly (°)83.73973
mean daily motion (°/day)0.25684910
aphelion distance (AU)2.791
period (years)3.84
P-vector [x]0.95631718
P-vector [y]0.24407232
P-vector [z]0.16089176
Q-vector [x]-0.28130472
Q-vector [y]0.91806268
Q-vector [z]0.27933593
absolute magnitude16.82
phase slope0.15
uncertainty0
referenceMPEC 2024-C163
observations used367
oppositions13
arc length (days)7524
first opposition used2003
last opposition used2024
residual rms (arc-secs)0.71
perturbers coarse indicatorM-v
perturbers precise indicator003Ek
first observation date used2003-07-08.0
last observation date used2024-02-12.0
computer nameMPCLINUX
JD of orbit computation2456847.833859
perihelion JD uncertainty (days)7.2458E-05
argument of perihelion uncertainty (°)5.4327E-05
ascending node uncertainty (°)5.1374E-05
inclination uncertainty (°)5.7758E-06
eccentricity uncertainty 7.0921E-08
perihelion distance uncertainty (AU)1.6582E-07
Minimum Orbit Intersection Distances (in AU)
for orbit epoch: 2460200.5, reference: E2024-CG3
Mercury1.76821
Venus1.39134
Earth1.11474
Mars0.67957
Jupiter2.66709
Saturn6.63879
Uranus15.7077
Neptune27.7066

Observations

375 total observations over interval: 2003 07 08.39355 – 2024 02 12.335691
These data are available for download (format description).

Date (UT) J2000 RA J2000 Dec Magn Location Ref
2003 07 08.39355 20 52 52.63 -05 38 56.0 20.2 V 691 – Steward Observatory, Kitt Peak-Spacewatch MPS 398347
2003 07 08.41625 20 52 51.79 -05 38 54.5 20.4 V 691 – Steward Observatory, Kitt Peak-Spacewatch MPS 398347
2003 07 08.44089 20 52 50.85 -05 38 51.7 20.5 V 691 – Steward Observatory, Kitt Peak-Spacewatch MPS 398347
2003 07 24.32100 20 40 46.78 -05 43 39.3 19.5   644 – Palomar Mountain/NEAT MPS 398347
2003 07 24.34301 20 40 45.56 -05 43 41.7 19.3   644 – Palomar Mountain/NEAT MPS 398347
2003 07 24.36459 20 40 44.38 -05 43 44.1 19.3   644 – Palomar Mountain/NEAT MPS 398347
2006 05 03.27853 13 55 39.03 -13 03 46.2 20.4 V G96 – Mt. Lemmon Survey MPS 398347
2006 05 03.28413 13 55 38.74 -13 03 43.9 20.4 V G96 – Mt. Lemmon Survey MPS 398347
2006 05 03.28980 13 55 38.42 -13 03 41.4 20.1 V G96 – Mt. Lemmon Survey MPS 398347
2006 05 03.29527 13 55 38.13 -13 03 39.2 20.2 V G96 – Mt. Lemmon Survey MPS 398347
2006 05 23.18130 13 41 39.15 -10 56 57.5 20.6 V G96 – Mt. Lemmon Survey MPS 398347
2006 05 23.18768 13 41 38.97 -10 56 55.6 20.7 V G96 – Mt. Lemmon Survey MPS 398347
2006 05 23.19369 13 41 38.76 -10 56 53.8 20.6 V G96 – Mt. Lemmon Survey MPS 398347
2006 05 23.19978 13 41 38.54 -10 56 51.9 21.0 V G96 – Mt. Lemmon Survey MPS 398347
2007 09 05.28469 22 07 37.92 +00 40 13.9 18.9 V 703 – Catalina Sky Survey MPS 398347
2007 09 05.29169 22 07 37.56 +00 40 11.9 19.9 V 703 – Catalina Sky Survey MPS 398347
2007 09 05.29880 22 07 37.23 +00 40 09.2 18.9 V 703 – Catalina Sky Survey MPS 398347
2007 09 05.30600 22 07 36.91 +00 40 06.1 18.9 V 703 – Catalina Sky Survey MPS 398347
2010 05 08.26176 15 06 35.17 -16 10 15.9 19.7 V G96 – Mt. Lemmon Survey MPS 398347
2010 05 08.27068 15 06 34.63 -16 10 13.1 20.0 V G96 – Mt. Lemmon Survey MPS 398347
2010 05 08.27956 15 06 34.12 -16 10 09.7 19.8 V G96 – Mt. Lemmon Survey MPS 398347
2010 05 08.28860 15 06 33.58 -16 10 06.4 19.9 V G96 – Mt. Lemmon Survey MPS 398347
2011 06 09.43691 23 33 29.98 +04 41 26.9 21.1 V G96 – Mt. Lemmon Survey MPS 398347
2011 06 09.44205 23 33 30.42 +04 41 30.1 21.4 V G96 – Mt. Lemmon Survey MPS 398347
2011 06 09.44723 23 33 30.81 +04 41 32.9 21.1 V G96 – Mt. Lemmon Survey MPS 398347
2011 06 09.45243 23 33 31.17 +04 41 36.4 20.8 V G96 – Mt. Lemmon Survey MPS 398347
2011 08 31.00375 00 25 57.07 +12 16 32.6 19.7 V J75 – OAM Observatory, La Sagra MPS 394335
2011 08 31.01450 00 25 56.80 +12 16 30.1 19.3 V J75 – OAM Observatory, La Sagra MPS 394335
2011 08 31.02530 00 25 56.52 +12 16 28.6 19.6 V J75 – OAM Observatory, La Sagra MPS 394335
2011 09 04.42888 00 24 03.871 +12 02 00.51 20.0 w F51 – Pan-STARRS 1, Haleakala MPS 394335
2011 09 04.44373 00 24 03.402 +12 01 57.11 19.9 w F51 – Pan-STARRS 1, Haleakala MPS 394335
2011 09 04.45861 00 24 02.929 +12 01 53.66 20.0 w F51 – Pan-STARRS 1, Haleakala MPS 394335
2011 09 04.47354 00 24 02.451 +12 01 50.16 19.9 w F51 – Pan-STARRS 1, Haleakala MPS 394335
2011 09 19.28713 00 14 42.18 +10 35 17.3 19.0 V 703 – Catalina Sky Survey MPS 392893
2011 09 19.29653 00 14 41.71 +10 35 12.8 19.0 V 703 – Catalina Sky Survey MPS 392893
2011 09 19.30606 00 14 41.31 +10 35 08.5 19.3 V 703 – Catalina Sky Survey MPS 392893
2011 09 19.31562 00 14 40.92 +10 35 05.7 19.4 V 703 – Catalina Sky Survey MPS 392893
2011 09 19.36428 00 14 38.751 +10 34 43.98 19.2 r F51 – Pan-STARRS 1, Haleakala MPS 392893
2011 09 19.37489 00 14 38.243 +10 34 39.16 19.2 r F51 – Pan-STARRS 1, Haleakala MPS 392893
2011 09 19.38876 00 14 37.588 +10 34 32.93 19.0 i F51 – Pan-STARRS 1, Haleakala MPS 392893
2011 09 19.40040 00 14 37.032 +10 34 27.64 19.1 i F51 – Pan-STARRS 1, Haleakala MPS 392893
2011 09 21.32502 00 13 09.81 +10 19 22.0 18.2   704 – Lincoln Laboratory ETS, New Mexico MPS 392893
2011 09 21.33805 00 13 09.14 +10 19 16.0 18.7   704 – Lincoln Laboratory ETS, New Mexico MPS 392893
2011 09 21.36502 00 13 07.84 +10 19 04.2 18.7   704 – Lincoln Laboratory ETS, New Mexico MPS 392893
2011 09 21.37806 00 13 07.23 +10 18 56.8 18.5   704 – Lincoln Laboratory ETS, New Mexico MPS 392893
2011 09 25.28573 00 10 06.28 +09 46 13.4 18.3   704 – Lincoln Laboratory ETS, New Mexico MPS 392893
2011 09 25.29837 00 10 05.66 +09 46 07.2 18.7   704 – Lincoln Laboratory ETS, New Mexico MPS 392893
2011 09 25.31092 00 10 05.06 +09 45 59.8 18.6   704 – Lincoln Laboratory ETS, New Mexico MPS 392893
2011 09 25.32346 00 10 04.44 +09 45 52.7 18.5   704 – Lincoln Laboratory ETS, New Mexico MPS 392893
2011 09 25.33612 00 10 03.73 +09 45 47.0 18.6   704 – Lincoln Laboratory ETS, New Mexico MPS 392893
2011 09 26.27858 00 09 19.83 +09 37 30.7 19.0 V 703 – Catalina Sky Survey MPS 392893
2011 09 26.28578 00 09 19.47 +09 37 26.8 18.7 V 703 – Catalina Sky Survey MPS 392893
2011 09 26.29294 00 09 19.08 +09 37 23.5 18.3 V 703 – Catalina Sky Survey MPS 392893
2011 09 26.30014 00 09 18.72 +09 37 19.0 18.5 V 703 – Catalina Sky Survey MPS 392893
2011 10 24.20710 23 52 04.50 +05 20 02.3 19.8   704 – Lincoln Laboratory ETS, New Mexico MPS 396461
2011 10 24.21923 23 52 04.34 +05 19 55.2 20.0   704 – Lincoln Laboratory ETS, New Mexico MPS 396461
2011 10 24.23269 23 52 04.03 +05 19 48.1 19.9   704 – Lincoln Laboratory ETS, New Mexico MPS 396461
2011 10 24.24547 23 52 03.73 +05 19 43.4 19.9   704 – Lincoln Laboratory ETS, New Mexico MPS 396461
2011 10 24.25773 23 52 03.40 +05 19 37.3 19.9   704 – Lincoln Laboratory ETS, New Mexico MPS 396461
2011 10 28.20823 23 51 01.83 +04 48 58.6 19.5 V G96 – Mt. Lemmon Survey MPS 396461
2011 10 28.21340 23 51 01.76 +04 48 56.3 19.4 V G96 – Mt. Lemmon Survey MPS 396461
2011 10 28.21860 23 51 01.69 +04 48 53.7 19.6 V G96 – Mt. Lemmon Survey MPS 396461
2011 10 28.22384 23 51 01.62 +04 48 51.7 19.6 V G96 – Mt. Lemmon Survey MPS 396461
2012 02 11.23006 01 39 44.023 +09 15 58.75 21.5 w F51 – Pan-STARRS 1, Haleakala MPS 411641
2012 02 11.23551 01 39 44.568 +09 16 01.53 21.7 w F51 – Pan-STARRS 1, Haleakala MPS 411641
2013 02 15.52149 10 02 37.916 +00 58 02.70 20.6 z F51 – Pan-STARRS 1, Haleakala MPS 457271
2013 02 15.52445 10 02 37.757 +00 58 03.79 20.5 z F51 – Pan-STARRS 1, Haleakala MPS 457271
2013 02 15.52741 10 02 37.565 +00 58 05.05 20.5 z F51 – Pan-STARRS 1, Haleakala MPS 457271
2013 02 15.53037 10 02 37.411 +00 58 06.03 20.9 z F51 – Pan-STARRS 1, Haleakala MPS 457271
2013 02 15.53333 10 02 37.238 +00 58 06.80 20.4 z F51 – Pan-STARRS 1, Haleakala MPS 457271
2013 02 16.29311 10 01 55.20 +01 02 23.8 20.7 V 703 – Catalina Sky Survey MPS 457271
2013 02 16.29874 10 01 54.87 +01 02 27.6 20.0 V 703 – Catalina Sky Survey MPS 457271
2013 02 16.30444 10 01 54.55 +01 02 27.9 19.9 V 703 – Catalina Sky Survey MPS 457271
2013 02 16.31012 10 01 54.30 +01 02 32.2 20.7 V 703 – Catalina Sky Survey MPS 457271
2013 02 17.26384 10 01 01.30 +01 08 01.2 20.0 V G96 – Mt. Lemmon Survey MPS 457271
2013 02 17.27822 10 01 00.48 +01 08 06.3 19.9 V G96 – Mt. Lemmon Survey MPS 457271
2013 02 17.28518 10 01 00.08 +01 08 08.5 19.9 V G96 – Mt. Lemmon Survey MPS 457271
2013 03 04.29647 09 47 45.282 +02 43 58.11 20.4 w F51 – Pan-STARRS 1, Haleakala MPS 459200
2013 03 04.31074 09 47 44.574 +02 44 03.88 20.2 w F51 – Pan-STARRS 1, Haleakala MPS 459200
2013 03 04.32498 09 47 43.858 +02 44 09.56 20.4 w F51 – Pan-STARRS 1, Haleakala MPS 459201
2013 03 04.33921 09 47 43.149 +02 44 15.24 20.3 w F51 – Pan-STARRS 1, Haleakala MPS 459201
2014 05 28.30129 16 09 35.31 -16 32 12.4 19.6 V G96 – Mt. Lemmon Survey MPS 517784
2014 05 28.30639 16 09 34.97 -16 32 10.6 19.2 V G96 – Mt. Lemmon Survey MPS 517784
2014 05 28.31150 16 09 34.63 -16 32 09.7 19.4 V G96 – Mt. Lemmon Survey MPS 517784
2014 06 05.28674 16 01 58.84 -15 53 43.8 19.9 V G96 – Mt. Lemmon Survey MPS 518765
2014 06 05.29920 16 01 58.13 -15 53 40.4 20.1 V G96 – Mt. Lemmon Survey MPS 518765
2014 06 05.30916 16 01 57.55 -15 53 37.6 19.9 V G96 – Mt. Lemmon Survey MPS 518765
2014 06 05.32184 16 01 56.85 -15 53 34.0 20.0 V G96 – Mt. Lemmon Survey MPS 518765
2014 06 06.24179 16 01 06.42 -15 49 21.3 19.9 V G96 – Mt. Lemmon Survey MPS 518765
2014 06 06.25838 16 01 05.47 -15 49 17.1 20.0 V G96 – Mt. Lemmon Survey MPS 518765
2014 06 06.27242 16 01 04.70 -15 49 12.9 19.9 V G96 – Mt. Lemmon Survey MPS 518766
2014 06 06.29156 16 01 03.60 -15 49 07.8 20.0 V G96 – Mt. Lemmon Survey MPS 518766
